www.pogodaiklimat.ru

Погода и климат >> Архив погоды >> Таиланд >> Си Самронг Агромет


ПОГОДА в Си Самронг Агромете

  • Прогноз погоды в Си Самронг Агромете
  • Монитор погоды в Си Самронг Агромете

АРХИВ ПОГОДЫ в Си Самронг Агромете

Время (UTC), дата Ветер
(напр.,м/с)
 
Видим.   Явления Облачность Т
(С)
Тd
(С)
f
(%)
Тe
(С)
Тes
(С)
Комфортность P
(гПа)
Po
(гПа)
Тmin
(С)
Tmax
(С)
R
(мм)
R24
(мм)
S
(см)
12 18.05 штиль 0 8000 м мгла 6/3 600 м
[Cu med, cong Cs]
+36.0 +27.4 61 +55 +55 опасность
перегрева
1001.8 995.8 +40.0
15 18.05 З 5 8000 м мгла 8/3 600 м
[Sc Ac trans Cs]
+33.5 +25.8 64 +49 +49 опасность
перегрева
1004.7 998.6
18 18.05 штиль 0 7000 м мгла 8/0
[Cs]
+31.0 +22.2 60 +40 +40 очень
душно
1003.9 997.8
21 18.05 штиль 0 5000 м дымка 8/0
[Cs]
+29.5 +23.7 71 +40 +40 очень
душно
1003.3 997.2
00 19.05 штиль 0 6000 м дымка 4/0
[Cs]
+29.0 +25.8 83 +43 +45 опасность
перегрева
1006.5 1000.4 +28.5
03 19.05 ЮЗ 5 8000 м мгла 5/0
[Cs]
+35.2 +26.6 61 +52 +59 опасность
перегрева
1008.2 1002.1
06 19.05 Ю 6 8000 м мгла 8/0
[Cs]
+39.0 +26.7 50 +55 +63 опасность
перегрева
1005.7 999.8
09 19.05 В 6 8000 м мгла 8/1 600 м
[Cu hum Cs]
+39.4 +27.3 51 +58 +60 опасность
перегрева
1002.4 996.5
12 19.05 штиль 0 7000 м мгла 8/1 600 м
[Cu hum Cs]
+35.7 +27.5 63 +55 +55 опасность
перегрева
1003.4 997.4 +40.3
15 19.05 штиль 0 7000 м дымка 8/0
[Cs]
+32.5 +25.5 67 +47 +47 опасность
перегрева
1006.0 999.9
18 19.05 штиль 0 7000 м дымка 8/0
[Cs]
+30.0 +25.8 78 +45 +45 опасность
перегрева
1004.8 998.7
21 19.05 штиль 0 6000 м дымка 8/0
[Cs]
+28.7 +25.9 85 +43 +43 опасность
перегрева
1002.8 996.7
00 20.05 Ю 4 8000 м дымка 8/0
[Cs]
+29.5 +27.4 89 +48 +48 опасность
перегрева
1007.3 1001.2 +28.6
03 20.05 штиль 0 8000 м мгла 6/0
[Cs]
+35.5 +27.7 64 +55 +74 опасность
перегрева
1008.4 1002.4
06 20.05 Ю 3 10 км 8/3 600 м
[Cu hum Cs]
+39.7 +26.7 48 +56 +67 опасность
перегрева
1005.8 999.9
09 20.05 В 4 10 км 8/1 600 м
[Cu hum Cs]
+40.0 +27.1 49 +58 +62 опасность
перегрева
1002.2 996.2
12 20.05 штиль 0 8000 м мгла 8/1 600 м
[Cb cap Cs]
+36.7 +28.0 61 +57 +57 опасность
перегрева
1003.0 997.1 +41.0
15 20.05 штиль 0 7000 м мгла 8/1 600 м
[Cu hum Cs]
+33.5 +25.8 64 +49 +49 опасность
перегрева
1006.2 1000.2
18 20.05 штиль 0 6000 м дымка 8/0
[Cs]
+33.0 +24.5 61 +46 +46 опасность
перегрева
1005.1 999.1
21 20.05 штиль 0 6000 м дымка 8/0
[Cs]
+29.3 +25.6 81 +43 +43 опасность
перегрева
1004.8 998.7
00 21.05 СЗ 3 7000 м дымка 8/3 600 м
[Cu hum Ac trans Cs]
+28.1 +24.7 82 +40 +41 очень
душно
1007.6 1001.4 +27.8
03 21.05 СЗ 5 8000 м дымка 6/0
[Cs]
+33.5 +27.8 72 +54 +61 опасность
перегрева
1008.5 1002.4
06 21.05 З 4 8000 м мгла 6/0
[Cs]
+38.3 +27.7 55 +57 +70 опасность
перегрева
1005.3 999.3
09 21.05 Ю 4 7000 м дымка 10/6 600 м
[Sc Ac trans Cs]
+36.0 +29.3 69 +61 +62 опасность
перегрева
1003.0 997.0
12 21.05 ЮВ 5 7000 м дымка 10/5 600 м
[Sc Ac trans Cs]
+33.5 +28.0 73 +54 +54 опасность
перегрева
1004.3 998.3 +39.0
15 21.05 З 9 5000 м гроза, ливневой дождь 10/8 600 м
[Cb cap Ac trans Cs]
+24.0 +23.3 96 +32 +32 очень
душно
1007.8 1001.5 17
18 21.05 штиль 0 5000 м слаб. дождь {гроза} 10/8 600 м
[Cu Sc Ac trans Cs]
+24.5 +23.8 96 +33 +33 очень
душно
1008.2 1002.0 22
21 21.05 штиль 0 5000 м дымка {дождь} 8/3 600 м
[Cu hum Ac trans Cs]
+24.0 +23.7 98 +33 +33 очень
душно
1006.6 1000.4 2
00 22.05 штиль 0 7000 м дымка {дождь} 8/3 600 м
[Cu hum Ac trans Cs]
+24.5 +23.8 96 +33 +34 очень
душно
1008.9 1002.6 +23.9 41
03 22.05 СВ 3 10 км 10/3 600 м
[Cu hum Ac trans Cs]
+29.0 +24.7 78 +41 +46 опасность
перегрева
1010.3 1004.1
06 22.05 штиль 0 10 км 10/3 600 м
[Sc Ac und Cs]
+31.0 +24.9 70 +44 +54 опасность
перегрева
1008.1 1002.0
09 22.05 штиль 0 10 км 6/3 600 м
[Cu med, cong Ac trans Cs]
+33.8 +25.2 61 +48 +54 опасность
перегрева
1004.5 998.5
12 22.05 штиль 0 8000 м дымка 8/3 600 м
[Cb cap Ac trans Cs]
+31.0 +26.1 75 +46 +46 опасность
перегрева
1006.0 999.9 +34.3
15 22.05 штиль 0 7000 м дымка 8/1 600 м
[Cu hum Ac trans Cs]
+28.0 +25.1 84 +40 +40 очень
душно
1007.6 1001.4
18 22.05 штиль 0 6000 м дымка 8/0
[Ac trans Cs]
+27.5 +24.6 84 +39 +39 очень
душно
1006.7 1000.6
21 22.05 штиль 0 5000 м дымка 8/0
[Ac trans Cs]
+26.5 +25.1 92 +38 +38 очень
душно
1005.5 999.3
00 23.05 штиль 0 8000 м дымка 6/0
[Cs]
+25.2 +23.7 91 +34 +36 очень
душно
1008.9 1002.7 +25.0
03 23.05 ЮЗ 7 8000 м дымка 6/3 600 м
[Sc Cs]
+31.5 +25.9 72 +47 +49 опасность
перегрева
1009.9 1003.8
06 23.05 штиль 0 10 км 6/3 600 м
[Cu hum Cs]
+34.5 +24.9 58 +48 +67 опасность
перегрева
1007.7 1001.7
09 23.05 ЮЗ 4 10 км 8/3 600 м
[Cu med, cong Ac trans Cs]
+36.7 +24.9 51 +50 +52 опасность
перегрева
1004.3 998.3
12 23.05 Ю 3 10 км 8/3 600 м
[Cu med, cong Ac trans Cs]
+30.5 +24.0 68 +42 +42 опасность
перегрева
1005.9 999.7 +37.0
15 23.05 штиль 0 10 км 8/3 600 м
[Cu hum Ac trans Cs]
+28.5 +24.9 81 +41 +41 опасность
перегрева
1007.4 1001.3
18 23.05 штиль 0 7000 м 8/0
[Cs]
+27.3 +25.2 88 +39 +39 очень
душно
1006.2 1000.1
21 23.05 штиль 0 10 км 8/0
[Cs]
+26.8 +25.4 92 +39 +39 очень
душно
1006.0 999.8
00 24.05 ЮЗ 3 10 км 8/0
[Cs]
+26.5 +25.1 92 +38 +39 очень
душно
1008.8 1002.6 +26.0
03 24.05 штиль 0 10 км 8/0
[Ac trans Cs]
+31.2 +24.8 69 +44 +59 опасность
перегрева
1009.5 1003.3
06 24.05 штиль 0 10 км 8/3 600 м
[Cu hum Cs]
+35.0 +24.9 56 +48 +66 опасность
перегрева
1007.0 1001.0
09 24.05 ЮЗ 5 10 км 6/3 600 м
[Cu hum Cs]
+36.4 +24.9 52 +50 +53 опасность
перегрева
1003.4 997.4
12 24.05 штиль 0 10 км в посл. час гроза 8/3 600 м
[Cu hum Ac trans Cs]
+32.2 +24.5 64 +45 +45 опасность
перегрева
1004.0 997.9 +36.7
15 24.05 ЮВ 5 10 км 8/3 600 м
[Sc Ac trans Cs]
+29.8 +24.4 73 +42 +42 опасность
перегрева
1006.0 999.8
18 24.05 штиль 0 6000 м дымка 8/0
[Cs]
+28.0 +24.7 82 +40 +40 очень
душно
1005.3 999.1
21 24.05 штиль 0 6000 м дымка 8/0
[Cs]
+27.0 +24.8 88 +39 +39 очень
душно
1004.0 997.8
00 25.05 штиль 0 8000 м дымка 6/0
[Cs]
+25.7 +23.5 88 +35 +37 очень
душно
1007.0 1000.8 +25.5
03 25.05 штиль 0 8000 м дымка 6/0
[Cs]
+31.0 +25.4 72 +45 +64 опасность
перегрева
1007.1 1001.0
06 25.05 штиль 0 8000 м мгла 6/3 600 м
[Cu hum Cs]
+35.2 +25.4 57 +50 +68 опасность
перегрева
999.5 993.5

 

Местоположение метеостанции Си Самронг Агромет (Таиланд): широта 17.17 долгота 99.87 высота над уровнем моря 54 м.

В архиве по умолчанию представлена погода в Си Самронг Агромете за последнюю неделю. Архивные данные за месяц целиком и за предыдущие месяцы, начиная с января 2011 года, Вы можете получить, выбрав интересующий диапазон дат из раскрывающегося списка и нажав кнопку "Ввод!".


*Определитесь, кто Вы:
робот инопланетянин человек

Внимание! Время в таблицах - всемирное. Для получения местного времени необходимо прибавить поправку, которая равна 7 ч.

Смотрите также архив погоды в соседних городах и на ближайших метеорологических станциях:

Погода в Сукхотаи (Таиланд) (11 км)
Погода в Уттарадите (Таиланд) (56 км)
Погода в Пхитсанулоке (Таиланд) (60 км)
Погода в Таке (Таиланд) (83 км)
Погода в Кампхэнгпхете (Таиланд) (85 км)
Погода в Тоене (Таиланд) (85 км)
Погода на Плотине Пумипона (Таиланд) (91 км)
Погода в Пичит Агромете (Таиланд) (93 км)
Погода в Дои Му Со Агромете (Таиланд) (110 км)
Погода в Прхрэ (Таиланд) (115 км)

Пояснения к столбцам:

Ветер - указаны скорость ветра в м/с - средняя за 10 мин, порывы в срок и между сроками (в фигурных скобках) и направление, откуда дует ветер: С - северный, СВ - северо-восточный, В - восточный, ЮВ - юго-восточный, Ю - южный, ЮЗ - юго-западный, З - западный, СЗ - северо-западный.
Видимость - горизонтальная дальность видимости в метрах или километрах. При видимости от 1 до 10 км при отсутствии осадков обычно наблюдается дымка, при ухудшении видимости до 1 км и менее - туман. В сухую погоду видимость может ухудшаться дымом, пылью или мглою.
Явления - указаны атмосферные явления, наблюдавшиеся в срок или в последний час перед сроком; фигурными скобками обозначены явления, наблюдавшиеся между сроками (за 1-3 часа до срока); квадратными скобками обозначены град или гололедные отложения с указанием их диаметра в мм.
Облачность - указаны через наклонную черту общая и нижняя облачность в баллах и высота нижней границы облаков в метрах; квадратными скобками обозначены формы облаков: Ci - перистые, Cs - перисто-слоистые, Cc - перисто-кучевые, Ac - высококучевые, As - высокослоистые, Sc - слоисто-кучевые, Ns - слоисто-дождевые, Cu - кучевые, Cb - кучево-дождевые. Подробнее классификацию облаков см. в Атласе облаков (PDF).
T - Температура воздуха - температура, измеренная на высоте 2 м над землей.
Td - Температура точки росы - температура, при понижении до которой содержащийся в воздухе водяной пар достигнет насыщения.
f - Относительная влажность воздуха - влажноcть воздуха, измеренная на высоте 2 м над землей.
Te - Эффективная температура - температура, которую ощущает одетый по сезону человек в тени. Характеристика душности погоды. При расчете учитывается влияние влажности воздуха и скорости ветра на теплоощущения человека.
Tes - Эффективная температура на солнце - температура, которую ощущает человек, с поправкой на солнечный нагрев. Характеристика знойности погоды. Зависит от высоты солнца над горизонтом, облачности и скорости ветра. Ночью, в пасмурную погоду, а также при ветре 12 м/с и более поправка равна нулю.
P - Атмосферное давление - приведенное к уровню моря атмосферное давление.
Po - Атмосферное давление - измеренное на уровне метеостанции атмосферное давление.
Tmin - Минимальная температура - минимум температуры воздуха на высоте 2 м над землей.
Tmax - Максимальная температура - максимум температуры воздуха на высоте 2 м над землей.
R - Количество осадков - Количество выпавших осадков за период времени, мм. При наведении курсора мыши на число - период времени, за который выпало указанное количество осадков.
R24 - Количество осадков - Количество выпавших осадков за 24 часа, мм.
S - Снежный покров - Высота снежного покрова, см. При наведении курсора мыши на число - состояние снежного покрова и степень покрытия местности в баллах.